Location: Newark
(49.2191°N, 12.6671°E)
Time: 03:27:28
(UTC+00:00)

Transit 4A - Pass Details

Date: 02 February 2020
Orbit: 872 x 973 km, 66.8° (Epoch: 17 February)

Event Time Altitude Azimuth Distance (km) Brightness Sun altitude
Rises 03:46:28 0° 200° (SSW) 3,536 - -28.5°
Reaches altitude 10° 03:49:01 10° 196° (SSW) 2,583 - -28.0°
Exits shadow 03:52:13 32° 184° (S) 1,495 8.8 -27.5°
Maximum altitude 03:54:52 59° 119° (ESE) 1,028 8.3 -27.1°
Drops below altitude 10° 04:00:38 10° 42° (NE) 2,545 10.7 -26.1°
Sets 04:03:08 0° 38° (NE) 3,480 11.5 -25.7°
